Weather History for Marysville, CA

Change the Weather History Date:

Thursday, March 7, 2013

  Actual Average Record
Temperature  
Mean Temperature 46 °F -  
Max Temperature 57 °F 65 °F 81 °F (1953)
Min Temperature 35 °F 44 °F 33 °F (1956)
Degree Days  
Heating Degree Days 19    
Moisture  
Dew Point 38 °F    
Average Humidity 79    
Maximum Humidity 100    
Minimum Humidity 44    
Precipitation  
Precipitation 0.00 in - - ()
Sea Level Pressure  
Sea Level Pressure 29.96 in    
Wind  
Wind Speed 2 mph (NNW)    
Max Wind Speed 8 mph    
Max Gust Speed -    
Visibility 7 miles    
Events      
Averages and records for this station are not official NWS values.
T = Trace of Precipitation, MM = Missing Value Source: NWS Daily Summary

Daily Weather History Graph

Daily Weather History Graph

Search for Another Location

Airport:

Trip Planner

Search our weather history database for the weather conditions in past years. The results will help you decide how hot, cold, wet, or windy it might be!

Date:

Astronomy

Mar. 07, 2013 Rise Set
Actual Time 6:29 AM PST 6:05 PM PST
Civil Twilight 6:02 AM PST 6:32 PM PST
Nautical Twilight 5:31 AM PST 7:03 PM PST
Astronomical Twilight 5:00 AM PST 7:34 PM PST
Moon 3:31 AM PST (3/7) 2:00 PM PST (3/7)
Length of Visible Light 12h 29m
Length of Day
11h 36m
Waning Crescent, 19% of the Moon is Illuminated
Mar 7
Waning Crescent
Mar 11
New
Mar 19
First Quarter
Mar 27
Full
Apr 2
Last Quarter

Hourly Weather History & Observations

Time (PST) Temp. Windchill Dew Point Humidity Pressure Visibility Wind Dir Wind Speed Gust Speed Precip Events Conditions
12:53 AM 44.1 °F - 39.0 °F 82% 30.02 in 10.0 mi Calm Calm - N/A   Overcast
1:53 AM 43.0 °F - 39.9 °F 89% 30.01 in 10.0 mi Calm Calm - 0.00 in   Overcast
2:53 AM 41.0 °F - 39.0 °F 93% 29.99 in 10.0 mi Calm Calm - 0.00 in   Mostly Cloudy
3:53 AM 39.9 °F - 37.9 °F 93% 29.98 in 9.0 mi Calm Calm - N/A   Partly Cloudy
4:32 AM 39.2 °F - 37.4 °F 93% 29.97 in 2.5 mi Calm Calm - N/A   Clear
4:39 AM 37.4 °F - 37.4 °F 100% 29.97 in 6.0 mi Calm Calm - N/A   Clear
4:42 AM 39.2 °F - 37.4 °F 93% 29.97 in 1.8 mi Calm Calm - N/A   Clear
4:47 AM 37.4 °F - 37.4 °F 100% 29.97 in 0.8 mi Calm Calm - N/A   Clear
4:53 AM 37.9 °F - 37.9 °F 100% 29.99 in 0.8 mi Calm Calm - N/A   Clear
4:59 AM 39.2 °F - 37.4 °F 93% 29.97 in 1.8 mi Calm Calm - N/A   Clear
5:02 AM 39.2 °F - 37.4 °F 93% 29.97 in 3.0 mi Calm Calm - N/A   Clear
5:12 AM 37.4 °F - 37.4 °F 100% 29.97 in 1.5 mi Calm Calm - N/A   Clear
5:14 AM 37.4 °F - 37.4 °F 100% 29.97 in 0.8 mi Calm Calm - N/A   Clear
5:26 AM 35.6 °F - 35.6 °F 100% 29.97 in 1.8 mi Calm Calm - N/A   Clear
5:28 AM 35.6 °F - 35.6 °F 100% 29.97 in 3.0 mi Calm Calm - N/A   Clear
5:43 AM 37.4 °F 33.8 °F 35.6 °F 93% 29.98 in 2.0 mi North 4.6 mph - N/A   Clear
5:51 AM 37.4 °F 33.8 °F 37.4 °F 100% 29.98 in 8.0 mi NNW 4.6 mph - N/A   Clear
5:53 AM 37.0 °F 33.3 °F 37.0 °F 100% 30.00 in 8.0 mi NNW 4.6 mph - N/A   Clear
6:53 AM 39.0 °F 36.8 °F 37.9 °F 96% 30.00 in 10.0 mi North 3.5 mph - N/A   Clear
7:53 AM 43.0 °F 38.8 °F 39.0 °F 86% 30.00 in 10.0 mi North 6.9 mph - N/A   Clear
8:53 AM 46.0 °F 43.1 °F 39.9 °F 79% 29.99 in 10.0 mi NW 5.8 mph - N/A   Clear
9:53 AM 51.1 °F - 39.9 °F 66% 29.98 in 10.0 mi NNW 8.1 mph - N/A   Clear
10:53 AM 53.1 °F - 39.0 °F 59% 29.98 in 10.0 mi NNW 6.9 mph - N/A   Clear
11:53 AM 54.0 °F - 39.0 °F 57% 29.97 in 10.0 mi NNW 5.8 mph - N/A   Clear
12:53 PM 55.9 °F - 39.0 °F 53% 29.95 in 10.0 mi Variable 4.6 mph - N/A   Clear
1:53 PM 57.0 °F - 39.0 °F 51% 29.93 in 10.0 mi NW 4.6 mph - N/A   Clear
2:53 PM 57.0 °F - 37.0 °F 47% 29.92 in 10.0 mi NW 3.5 mph - N/A   Clear
3:53 PM 57.9 °F - 36.0 °F 44% 29.91 in 10.0 mi Variable 3.5 mph - N/A   Clear
4:53 PM 55.9 °F - 35.1 °F 45% 29.91 in 10.0 mi SW 3.5 mph - N/A   Clear
5:53 PM 54.0 °F - 36.0 °F 51% 29.91 in 10.0 mi Calm Calm - N/A   Clear
6:53 PM 50.0 °F - 37.0 °F 61% 29.91 in 10.0 mi NW 3.5 mph - N/A   Clear
7:53 PM 51.1 °F - 37.9 °F 61% 29.91 in 10.0 mi NNW 3.5 mph - N/A   Overcast
8:53 PM 51.1 °F - 37.9 °F 61% 29.90 in 10.0 mi North 4.6 mph - N/A   Overcast
9:53 PM 50.0 °F - 37.9 °F 63% 29.90 in 10.0 mi Calm Calm - N/A   Overcast
10:53 PM 50.0 °F - 37.9 °F 63% 29.90 in 10.0 mi North 5.8 mph - N/A   Overcast
11:53 PM 48.0 °F - 37.0 °F 66% 29.89 in 10.0 mi North 4.6 mph - N/A   Partly Cloudy